Time,TemperatureF,DewpointF,PressureIn,WindDirection,WindDirectionDegrees,WindSpeedMPH,WindSpeedGustMPH,Humidity,HourlyPrecipIn,Conditions,Clouds,dailyrainin,SoftwareType,DateUTC
2013-04-08 00:00:00,57.3,42.7,0.00,WSW,248,0.0,0.0,58,0.00,,,0.00,WUHU216HW,2013-04-08 04:00:00,
2013-04-08 00:05:00,57.3,42.7,0.00,WSW,248,0.0,0.0,58,0.00,,,0.00,WUHU216HW,2013-04-08 04:05:00,
2013-04-08 00:10:00,57.0,42.4,0.00,WSW,248,0.0,0.0,58,0.00,,,0.00,WUHU216HW,2013-04-08 04:10:00,
2013-04-08 00:15:00,56.8,42.2,0.00,WSW,248,0.0,0.0,58,0.00,,,0.00,WUHU216HW,2013-04-08 04:15:00,
2013-04-08 00:20:00,56.8,42.2,0.00,WSW,248,0.0,0.0,58,0.00,,,0.00,WUHU216HW,2013-04-08 04:20:00,
2013-04-08 00:25:00,56.4,42.3,0.00,WSW,248,0.0,0.0,59,0.00,,,0.00,WUHU216HW,2013-04-08 04:25:00,
2013-04-08 00:30:00,56.4,42.3,0.00,WSW,248,0.0,0.0,59,0.00,,,0.00,WUHU216HW,2013-04-08 04:30:00,
2013-04-08 00:35:00,56.4,42.3,0.00,WSW,248,0.0,0.0,59,0.00,,,0.00,WUHU216HW,2013-04-08 04:35:00,
2013-04-08 00:40:00,56.1,41.9,0.00,WSW,248,0.0,0.0,59,0.00,,,0.00,WUHU216HW,2013-04-08 04:40:00,
2013-04-08 00:45:00,56.1,42.4,0.00,WSW,248,0.0,0.0,60,0.00,,,0.00,WUHU216HW,2013-04-08 04:45:00,
2013-04-08 00:50:00,56.3,42.6,0.00,WSW,248,0.0,0.6,60,0.00,,,0.00,WUHU216HW,2013-04-08 04:50:00,
2013-04-08 00:55:00,56.6,42.9,0.00,WSW,248,0.0,0.6,60,0.00,,,0.00,WUHU216HW,2013-04-08 04:55:00,
2013-04-08 01:00:00,56.8,43.1,0.00,WSW,248,0.0,0.0,60,0.00,,,0.00,WUHU216HW,2013-04-08 05:00:00,
2013-04-08 01:05:00,56.8,42.6,0.00,WSW,248,0.0,0.0,59,0.00,,,0.00,WUHU216HW,2013-04-08 05:05:00,
2013-04-08 01:10:00,57.0,42.8,0.00,West,270,0.0,2.6,59,0.00,,,0.00,WUHU216HW,2013-04-08 05:10:00,
2013-04-08 01:15:00,57.0,42.8,0.00,West,270,0.0,2.6,59,0.00,,,0.00,WUHU216HW,2013-04-08 05:15:00,
2013-04-08 01:20:00,56.8,42.6,0.00,West,270,0.0,0.0,59,0.00,,,0.00,WUHU216HW,2013-04-08 05:20:00,
2013-04-08 01:25:00,56.3,42.3,0.00,West,270,0.0,0.0,59,0.00,,,0.00,WUHU216HW,2013-04-08 05:25:00,
2013-04-08 01:30:00,55.9,42.2,0.00,West,270,0.0,0.0,60,0.00,,,0.00,WUHU216HW,2013-04-08 05:30:00,
2013-04-08 01:35:00,55.4,41.7,0.00,West,270,0.0,0.0,60,0.00,,,0.00,WUHU216HW,2013-04-08 05:35:00,
2013-04-08 01:40:00,54.8,41.0,0.00,West,270,0.0,0.0,60,0.00,,,0.00,WUHU216HW,2013-04-08 05:40:00,
2013-04-08 01:45:00,54.3,40.7,0.00,West,270,0.0,0.0,60,0.00,,,0.00,WUHU216HW,2013-04-08 05:45:00,
2013-04-08 01:50:00,53.7,40.6,0.00,West,270,0.0,0.0,61,0.00,,,0.00,WUHU216HW,2013-04-08 05:50:00,
2013-04-08 01:56:00,53.4,40.3,0.00,West,270,0.0,0.0,61,0.00,,,0.00,WUHU216HW,2013-04-08 05:56:00,
2013-04-08 02:01:00,53.2,40.1,0.00,West,270,0.0,0.0,61,0.00,,,0.00,WUHU216HW,2013-04-08 06:01:00,
2013-04-08 02:06:00,52.8,40.1,0.00,West,270,0.0,0.0,62,0.00,,,0.00,WUHU216HW,2013-04-08 06:06:00,
2013-04-08 02:11:00,52.7,39.8,0.00,West,270,0.0,0.0,62,0.00,,,0.00,WUHU216HW,2013-04-08 06:11:00,
2013-04-08 02:16:00,52.3,39.6,0.00,West,270,0.0,0.0,62,0.00,,,0.00,WUHU216HW,2013-04-08 06:16:00,
2013-04-08 02:21:00,52.1,39.4,0.00,West,270,0.0,0.0,62,0.00,,,0.00,WUHU216HW,2013-04-08 06:21:00,
2013-04-08 02:26:00,51.9,39.7,0.00,West,270,0.0,0.0,63,0.00,,,0.00,WUHU216HW,2013-04-08 06:26:00,
2013-04-08 02:31:00,51.8,39.5,0.00,West,270,0.0,0.0,63,0.00,,,0.00,WUHU216HW,2013-04-08 06:31:00,
2013-04-08 02:36:00,51.6,39.3,0.00,West,270,0.0,0.0,63,0.00,,,0.00,WUHU216HW,2013-04-08 06:36:00,
2013-04-08 02:41:00,51.4,39.2,0.00,West,270,0.0,0.0,63,0.00,,,0.00,WUHU216HW,2013-04-08 06:41:00,
2013-04-08 02:47:00,51.2,39.4,0.00,West,270,0.0,0.0,64,0.00,,,0.00,WUHU216HW,2013-04-08 06:47:00,
2013-04-08 02:52:00,50.7,38.9,0.00,West,270,0.0,0.0,64,0.00,,,0.00,WUHU216HW,2013-04-08 06:52:00,
2013-04-08 02:57:00,50.5,39.1,0.00,West,270,0.0,0.0,65,0.00,,,0.00,WUHU216HW,2013-04-08 06:57:00,
2013-04-08 03:02:00,50.3,39.0,0.00,West,270,0.0,0.0,65,0.00,,,0.00,WUHU216HW,2013-04-08 07:02:00,
2013-04-08 03:07:00,50.1,38.8,0.00,West,270,0.0,0.0,65,0.00,,,0.00,WUHU216HW,2013-04-08 07:07:00,
2013-04-08 03:12:00,50.1,38.8,0.00,West,270,0.0,0.0,65,0.00,,,0.00,WUHU216HW,2013-04-08 07:12:00,
2013-04-08 03:17:00,49.8,38.4,0.00,West,270,0.0,0.0,65,0.00,,,0.00,WUHU216HW,2013-04-08 07:17:00,
2013-04-08 03:22:00,49.8,38.8,0.00,West,270,0.0,0.0,66,0.00,,,0.00,WUHU216HW,2013-04-08 07:22:00,
2013-04-08 03:27:00,49.6,38.6,0.00,West,270,0.0,0.0,66,0.00,,,0.00,WUHU216HW,2013-04-08 07:27:00,
2013-04-08 03:32:00,49.6,38.6,0.00,West,270,0.0,0.0,66,0.00,,,0.00,WUHU216HW,2013-04-08 07:32:00,
2013-04-08 03:37:00,49.2,38.3,0.00,West,270,0.0,0.0,66,0.00,,,0.00,WUHU216HW,2013-04-08 07:37:00,
2013-04-08 03:42:00,49.1,38.5,0.00,West,270,0.0,0.0,67,0.00,,,0.00,WUHU216HW,2013-04-08 07:42:00,
2013-04-08 03:47:00,48.9,38.3,0.00,West,270,0.0,0.0,67,0.00,,,0.00,WUHU216HW,2013-04-08 07:47:00,
2013-04-08 03:52:00,48.7,38.2,0.00,West,270,0.0,0.0,67,0.00,,,0.00,WUHU216HW,2013-04-08 07:52:00,
2013-04-08 03:57:00,48.7,38.2,0.00,West,270,0.0,0.0,67,0.00,,,0.00,WUHU216HW,2013-04-08 07:57:00,
2013-04-08 04:02:00,48.3,37.8,0.00,West,270,0.0,0.0,67,0.00,,,0.00,WUHU216HW,2013-04-08 08:02:00,
2013-04-08 04:07:00,48.3,37.8,0.00,West,270,0.0,0.0,67,0.00,,,0.00,WUHU216HW,2013-04-08 08:07:00,
2013-04-08 04:12:00,48.0,37.9,0.00,West,270,0.0,0.0,68,0.00,,,0.00,WUHU216HW,2013-04-08 08:12:00,
2013-04-08 04:17:00,48.0,37.9,0.00,West,270,0.0,0.0,68,0.00,,,0.00,WUHU216HW,2013-04-08 08:17:00,
2013-04-08 04:22:00,47.8,37.7,0.00,West,270,0.0,0.0,68,0.00,,,0.00,WUHU216HW,2013-04-08 08:22:00,
2013-04-08 04:27:00,47.6,37.5,0.00,West,270,0.0,0.0,68,0.00,,,0.00,WUHU216HW,2013-04-08 08:27:00,
2013-04-08 04:32:00,47.3,37.6,0.00,West,270,0.0,0.0,69,0.00,,,0.00,WUHU216HW,2013-04-08 08:32:00,
2013-04-08 04:37:00,47.1,37.4,0.00,West,270,0.0,0.0,69,0.00,,,0.00,WUHU216HW,2013-04-08 08:37:00,
2013-04-08 04:42:00,47.1,37.4,0.00,West,270,0.0,0.0,69,0.00,,,0.00,WUHU216HW,2013-04-08 08:42:00,
2013-04-08 04:47:00,46.9,37.3,0.00,West,270,0.0,0.0,69,0.00,,,0.00,WUHU216HW,2013-04-08 08:47:00,
2013-04-08 04:52:00,46.7,37.5,0.00,West,270,0.0,0.0,70,0.00,,,0.00,WUHU216HW,2013-04-08 08:52:00,
2013-04-08 04:57:00,46.5,37.3,0.00,West,270,0.0,0.0,70,0.00,,,0.00,WUHU216HW,2013-04-08 08:57:00,
2013-04-08 05:02:00,46.5,37.3,0.00,West,270,0.0,0.0,70,0.00,,,0.00,WUHU216HW,2013-04-08 09:02:00,
2013-04-08 05:07:00,46.4,37.2,0.00,West,270,0.0,0.0,70,0.00,,,0.00,WUHU216HW,2013-04-08 09:07:00,
2013-04-08 05:12:00,46.2,37.3,0.00,West,270,0.0,0.0,71,0.00,,,0.00,WUHU216HW,2013-04-08 09:12:00,
2013-04-08 05:17:00,46.2,37.3,0.00,West,270,0.0,0.0,71,0.00,,,0.00,WUHU216HW,2013-04-08 09:17:00,
2013-04-08 05:22:00,46.0,37.2,0.00,West,270,0.0,0.0,71,0.00,,,0.00,WUHU216HW,2013-04-08 09:22:00,
2013-04-08 05:27:00,45.6,37.1,0.00,West,270,0.0,0.0,72,0.00,,,0.00,WUHU216HW,2013-04-08 09:27:00,
2013-04-08 05:33:00,45.6,37.1,0.00,West,270,0.0,0.0,72,0.00,,,0.00,WUHU216HW,2013-04-08 09:33:00,
2013-04-08 05:37:00,45.6,37.1,0.00,North,0,0.0,0.0,72,0.00,,,0.00,WUHU216HW,2013-04-08 09:37:00,
2013-04-08 05:43:00,45.6,37.1,0.00,West,270,0.0,0.0,72,0.00,,,0.00,WUHU216HW,2013-04-08 09:43:00,
2013-04-08 05:47:00,45.6,37.1,0.00,West,270,0.0,0.0,72,0.00,,,0.00,WUHU216HW,2013-04-08 09:47:00,
2013-04-08 05:53:00,45.6,37.1,0.00,West,270,0.0,0.0,72,0.00,,,0.00,WUHU216HW,2013-04-08 09:53:00,
2013-04-08 05:58:00,45.3,36.8,0.00,West,270,0.0,0.0,72,0.00,,,0.00,WUHU216HW,2013-04-08 09:58:00,
2013-04-08 06:03:00,45.1,36.9,0.00,West,270,0.0,0.0,73,0.00,,,0.00,WUHU216HW,2013-04-08 10:03:00,
2013-04-08 06:08:00,45.1,36.9,0.00,West,270,0.0,0.0,73,0.00,,,0.00,WUHU216HW,2013-04-08 10:08:00,
2013-04-08 06:13:00,45.1,36.9,0.00,West,270,0.0,0.0,73,0.00,,,0.00,WUHU216HW,2013-04-08 10:13:00,
2013-04-08 06:18:00,44.9,37.1,0.00,West,270,0.0,0.0,74,0.00,,,0.00,WUHU216HW,2013-04-08 10:18:00,
2013-04-08 06:23:00,45.1,37.3,0.00,West,270,0.0,0.0,74,0.00,,,0.00,WUHU216HW,2013-04-08 10:23:00,
2013-04-08 06:28:00,45.1,37.3,0.00,West,270,0.0,0.0,74,0.00,,,0.00,WUHU216HW,2013-04-08 10:28:00,
2013-04-08 06:33:00,45.1,37.3,0.00,West,270,0.0,0.0,74,0.00,,,0.00,WUHU216HW,2013-04-08 10:33:00,
2013-04-08 06:38:00,45.1,37.3,0.00,West,270,0.0,0.0,74,0.00,,,0.00,WUHU216HW,2013-04-08 10:38:00,
2013-04-08 06:43:00,45.1,37.3,0.00,West,270,0.0,0.0,74,0.00,,,0.00,WUHU216HW,2013-04-08 10:43:00,
2013-04-08 06:48:00,45.1,37.3,0.00,West,270,0.0,0.0,74,0.00,,,0.00,WUHU216HW,2013-04-08 10:48:00,
2013-04-08 06:53:00,45.1,37.3,0.00,West,270,0.0,0.0,74,0.00,,,0.00,WUHU216HW,2013-04-08 10:53:00,
2013-04-08 06:58:00,45.1,37.3,0.00,West,270,0.0,0.0,74,0.00,,,0.00,WUHU216HW,2013-04-08 10:58:00,
2013-04-08 07:03:00,45.1,37.3,0.00,West,270,0.0,0.0,74,0.00,,,0.00,WUHU216HW,2013-04-08 11:03:00,
2013-04-08 07:08:00,45.1,37.3,0.00,West,270,0.0,0.0,74,0.00,,,0.00,WUHU216HW,2013-04-08 11:08:00,
2013-04-08 07:13:00,44.9,37.4,0.00,West,270,0.0,0.0,75,0.00,,,0.00,WUHU216HW,2013-04-08 11:13:00,
2013-04-08 07:18:00,44.9,37.4,0.00,West,270,0.0,0.0,75,0.00,,,0.00,WUHU216HW,2013-04-08 11:18:00,
2013-04-08 07:23:00,44.9,37.4,0.00,West,270,0.0,0.0,75,0.00,,,0.00,WUHU216HW,2013-04-08 11:23:00,
2013-04-08 07:28:00,44.9,37.4,0.00,West,270,0.0,0.0,75,0.00,,,0.00,WUHU216HW,2013-04-08 11:28:00,
2013-04-08 07:33:00,44.9,37.4,0.00,West,270,0.0,0.0,75,0.00,,,0.00,WUHU216HW,2013-04-08 11:33:00,
2013-04-08 07:38:00,44.7,37.3,0.00,West,270,0.0,0.0,75,0.00,,,0.00,WUHU216HW,2013-04-08 11:38:00,
2013-04-08 07:43:00,44.7,37.3,0.00,West,270,0.0,0.0,75,0.00,,,0.00,WUHU216HW,2013-04-08 11:43:00,
2013-04-08 07:48:00,44.9,37.4,0.00,West,270,0.0,0.0,75,0.00,,,0.00,WUHU216HW,2013-04-08 11:48:00,
2013-04-08 07:53:00,44.9,37.4,0.00,West,270,0.0,0.0,75,0.00,,,0.00,WUHU216HW,2013-04-08 11:53:00,
2013-04-08 07:58:00,45.1,37.6,0.00,West,270,0.0,0.0,75,0.00,,,0.00,WUHU216HW,2013-04-08 11:58:00,
2013-04-08 08:03:00,45.1,37.6,0.00,West,270,0.0,0.0,75,0.00,,,0.00,WUHU216HW,2013-04-08 12:03:00,
2013-04-08 08:08:00,45.3,37.8,0.00,West,270,0.0,0.0,75,0.00,,,0.00,WUHU216HW,2013-04-08 12:08:00,
2013-04-08 08:13:00,45.5,38.0,0.00,West,270,0.0,0.0,75,0.00,,,0.00,WUHU216HW,2013-04-08 12:13:00,
2013-04-08 08:18:00,45.6,38.5,0.00,West,270,0.0,0.0,76,0.00,,,0.00,WUHU216HW,2013-04-08 12:18:00,
2013-04-08 08:23:00,45.6,38.5,0.00,West,270,0.0,0.0,76,0.00,,,0.00,WUHU216HW,2013-04-08 12:23:00,
2013-04-08 08:28:00,46.0,38.9,0.00,West,270,0.0,0.0,76,0.00,,,0.00,WUHU216HW,2013-04-08 12:28:00,
2013-04-08 08:34:00,46.0,38.9,0.00,West,270,0.0,0.0,76,0.00,,,0.00,WUHU216HW,2013-04-08 12:34:00,
2013-04-08 08:39:00,46.2,39.0,0.00,West,270,0.0,0.0,76,0.00,,,0.00,WUHU216HW,2013-04-08 12:39:00,
2013-04-08 08:44:00,46.5,39.4,0.00,West,270,0.0,0.0,76,0.00,,,0.00,WUHU216HW,2013-04-08 12:44:00,
2013-04-08 08:49:00,47.1,39.9,0.00,West,270,0.0,0.0,76,0.00,,,0.00,WUHU216HW,2013-04-08 12:49:00,
2013-04-08 08:54:00,47.4,40.5,0.00,West,270,0.0,0.0,77,0.00,,,0.00,WUHU216HW,2013-04-08 12:54:00,
2013-04-08 08:59:00,48.0,40.9,0.00,West,270,0.0,0.0,77,0.00,,,0.00,WUHU216HW,2013-04-08 12:59:00,
2013-04-08 09:04:00,48.3,41.4,0.00,West,270,0.0,0.0,77,0.00,,,0.00,WUHU216HW,2013-04-08 13:04:00,
2013-04-08 09:09:00,48.9,41.9,0.00,West,270,0.0,0.0,77,0.00,,,0.00,WUHU216HW,2013-04-08 13:09:00,
2013-04-08 09:14:00,49.4,42.4,0.00,West,270,0.0,0.0,77,0.00,,,0.00,WUHU216HW,2013-04-08 13:14:00,
2013-04-08 09:19:00,50.0,42.6,0.00,West,270,0.0,0.0,76,0.00,,,0.00,WUHU216HW,2013-04-08 13:19:00,
2013-04-08 09:24:00,50.7,43.7,0.00,West,270,0.0,0.0,77,0.00,,,0.00,WUHU216HW,2013-04-08 13:24:00,
2013-04-08 09:29:00,51.4,44.1,0.00,West,270,0.0,0.0,76,0.00,,,0.00,WUHU216HW,2013-04-08 13:29:00,
2013-04-08 09:34:00,51.9,44.4,0.00,West,270,0.0,0.0,76,0.00,,,0.00,WUHU216HW,2013-04-08 13:34:00,
2013-04-08 09:39:00,52.5,45.3,0.00,West,270,0.0,0.0,76,0.00,,,0.00,WUHU216HW,2013-04-08 13:39:00,
2013-04-08 09:45:00,53.2,45.8,0.00,West,270,0.0,0.0,76,0.00,,,0.00,WUHU216HW,2013-04-08 13:45:00,
2013-04-08 09:50:00,54.1,46.7,0.00,West,270,0.0,0.0,76,0.00,,,0.00,WUHU216HW,2013-04-08 13:50:00,
2013-04-08 09:55:00,54.6,46.8,0.00,SE,135,0.0,0.0,75,0.00,,,0.00,WUHU216HW,2013-04-08 13:55:00,
2013-04-08 10:00:00,55.2,47.3,0.00,SE,135,0.0,0.0,75,0.00,,,0.00,WUHU216HW,2013-04-08 14:00:00,
2013-04-08 10:05:00,56.1,47.8,0.00,SE,135,0.0,0.0,74,0.00,,,0.00,WUHU216HW,2013-04-08 14:05:00,
2013-04-08 10:10:00,56.8,48.5,0.00,SE,135,0.0,0.0,74,0.00,,,0.00,WUHU216HW,2013-04-08 14:10:00,
2013-04-08 10:15:00,57.9,49.2,0.00,WNW,293,1.1,2.0,73,0.00,,,0.00,WUHU216HW,2013-04-08 14:15:00,
2013-04-08 10:20:00,58.8,49.1,0.00,West,270,0.0,6.7,70,0.00,,,0.00,WUHU216HW,2013-04-08 14:20:00,
2013-04-08 10:25:00,60.4,49.9,0.00,WNW,293,7.1,7.1,68,0.00,,,0.00,WUHU216HW,2013-04-08 14:25:00,
2013-04-08 10:30:00,61.1,49.7,0.00,WNW,293,5.8,7.1,66,0.00,,,0.00,WUHU216HW,2013-04-08 14:30:00,
2013-04-08 10:35:00,61.8,49.9,0.00,West,270,2.2,5.8,65,0.00,,,0.00,WUHU216HW,2013-04-08 14:35:00,
2013-04-08 10:40:00,62.4,50.0,0.00,West,270,2.0,5.1,64,0.00,,,0.00,WUHU216HW,2013-04-08 14:40:00,
2013-04-08 10:45:00,63.3,50.2,0.00,WNW,293,8.0,8.0,63,0.00,,,0.00,WUHU216HW,2013-04-08 14:45:00,
2013-04-08 10:50:00,63.6,50.3,0.00,West,270,0.0,8.0,62,0.00,,,0.00,WUHU216HW,2013-04-08 14:50:00,
2013-04-08 10:55:00,64.0,50.2,0.00,West,270,0.0,3.3,61,0.00,,,0.00,WUHU216HW,2013-04-08 14:55:00,
2013-04-08 11:00:00,64.7,50.7,0.00,WNW,293,4.4,4.6,61,0.00,,,0.00,WUHU216HW,2013-04-08 15:00:00,
2013-04-08 11:05:00,65.3,51.0,0.00,NW,315,7.3,7.3,60,0.00,,,0.00,WUHU216HW,2013-04-08 15:05:00,
2013-04-08 11:10:00,65.6,50.9,0.00,West,270,0.0,7.3,59,0.00,,,0.00,WUHU216HW,2013-04-08 15:10:00,
2013-04-08 11:15:00,66.0,51.3,0.00,WNW,293,4.2,6.2,59,0.00,,,0.00,WUHU216HW,2013-04-08 15:15:00,
2013-04-08 11:20:00,66.7,51.4,0.00,West,270,3.1,4.2,58,0.00,,,0.00,WUHU216HW,2013-04-08 15:20:00,
2013-04-08 11:25:00,67.1,51.3,0.00,WSW,248,2.0,4.6,57,0.00,,,0.00,WUHU216HW,2013-04-08 15:25:00,
2013-04-08 11:30:00,67.6,51.3,0.00,West,270,0.0,4.6,56,0.00,,,0.00,WUHU216HW,2013-04-08 15:30:00,
2013-04-08 11:35:00,67.8,51.4,0.00,West,270,0.0,2.9,56,0.00,,,0.00,WUHU216HW,2013-04-08 15:35:00,
2013-04-08 11:40:00,68.1,51.8,0.00,SE,135,0.8,3.5,56,0.00,,,0.00,WUHU216HW,2013-04-08 15:40:00,
2013-04-08 11:46:00,68.3,51.9,0.00,West,270,0.0,3.5,56,0.00,,,0.00,WUHU216HW,2013-04-08 15:46:00,
2013-04-08 11:51:00,68.5,51.6,0.00,SE,135,0.0,3.8,55,0.00,,,0.00,WUHU216HW,2013-04-08 15:51:00,
2013-04-08 11:56:00,68.9,52.0,0.00,West,270,3.3,5.5,55,0.00,,,0.00,WUHU216HW,2013-04-08 15:56:00,
2013-04-08 12:01:00,69.6,51.6,0.00,West,270,4.9,7.1,53,0.00,,,0.00,WUHU216HW,2013-04-08 16:01:00,
2013-04-08 12:06:00,69.9,52.0,0.00,SE,135,4.2,7.1,53,0.00,,,0.00,WUHU216HW,2013-04-08 16:06:00,
2013-04-08 12:11:00,70.3,52.3,0.00,West,270,6.9,6.9,53,0.00,,,0.00,WUHU216HW,2013-04-08 16:11:00,
2013-04-08 12:16:00,70.8,51.8,0.00,SE,135,0.0,6.9,51,0.00,,,0.00,WUHU216HW,2013-04-08 16:16:00,
2013-04-08 12:21:00,71.2,52.1,0.00,West,270,3.5,3.5,51,0.00,,,0.00,WUHU216HW,2013-04-08 16:21:00,
2013-04-08 12:26:00,71.4,52.3,0.00,SSW,203,0.0,4.9,51,0.00,,,0.00,WUHU216HW,2013-04-08 16:26:00,
2013-04-08 12:31:00,71.7,52.1,0.00,West,270,4.6,4.9,50,0.00,,,0.00,WUHU216HW,2013-04-08 16:31:00,
2013-04-08 12:36:00,71.9,51.7,0.00,West,270,0.0,4.6,50,0.00,,,0.00,WUHU216HW,2013-04-08 16:36:00,
2013-04-08 12:41:00,72.1,51.7,0.00,West,270,0.0,3.8,49,0.00,,,0.00,WUHU216HW,2013-04-08 16:41:00,
2013-04-08 12:46:00,72.3,52.6,0.00,West,270,0.0,4.0,50,0.00,,,0.00,WUHU216HW,2013-04-08 16:46:00,
2013-04-08 12:51:00,72.8,53.1,0.00,North,0,0.0,4.0,50,0.00,,,0.00,WUHU216HW,2013-04-08 16:51:00,
2013-04-08 12:56:00,72.8,52.5,0.00,West,270,0.0,3.1,49,0.00,,,0.00,WUHU216HW,2013-04-08 16:56:00,
2013-04-08 13:02:00,72.6,52.3,0.00,WNW,293,0.0,5.3,49,0.00,,,0.00,WUHU216HW,2013-04-08 17:02:00,
2013-04-08 13:07:00,72.5,52.1,0.00,WNW,293,0.0,5.3,49,0.00,,,0.00,WUHU216HW,2013-04-08 17:07:00,
2013-04-08 13:12:00,72.3,53.1,0.00,WSW,248,0.0,0.0,50,0.00,,,0.00,WUHU216HW,2013-04-08 17:12:00,
2013-04-08 13:17:00,72.3,52.6,0.00,West,270,0.0,5.8,50,0.00,,,0.00,WUHU216HW,2013-04-08 17:17:00,
2013-04-08 13:22:00,72.6,52.3,0.00,West,270,0.0,6.2,49,0.00,,,0.00,WUHU216HW,2013-04-08 17:22:00,
2013-04-08 13:27:00,72.6,51.7,0.00,WSW,248,2.2,7.8,48,0.00,,,0.00,WUHU216HW,2013-04-08 17:27:00,
2013-04-08 13:32:00,72.8,51.9,0.00,WNW,293,0.0,7.8,48,0.00,,,0.00,WUHU216HW,2013-04-08 17:32:00,
2013-04-08 13:37:00,73.2,52.2,0.00,SE,135,1.1,6.4,48,0.00,,,0.00,WUHU216HW,2013-04-08 17:37:00,
2013-04-08 13:42:00,73.5,51.9,0.00,WNW,293,3.8,6.4,47,0.00,,,0.00,WUHU216HW,2013-04-08 17:42:00,
2013-04-08 13:47:00,73.7,52.7,0.00,WSW,248,0.0,5.1,48,0.00,,,0.00,WUHU216HW,2013-04-08 17:47:00,
2013-04-08 13:52:00,73.5,51.9,0.00,WNW,293,5.3,5.3,47,0.00,,,0.00,WUHU216HW,2013-04-08 17:52:00,
2013-04-08 13:58:00,73.2,51.6,0.00,WNW,293,4.9,5.3,47,0.00,,,0.00,WUHU216HW,2013-04-08 17:58:00,
2013-04-08 14:03:00,73.2,51.6,0.00,WNW,293,4.2,4.9,47,0.00,,,0.00,WUHU216HW,2013-04-08 18:03:00,
2013-04-08 14:08:00,73.4,51.8,0.00,West,270,0.0,7.1,47,0.00,,,0.00,WUHU216HW,2013-04-08 18:08:00,
2013-04-08 14:13:00,73.5,51.9,0.00,WSW,248,0.0,7.1,47,0.00,,,0.00,WUHU216HW,2013-04-08 18:13:00,
2013-04-08 14:18:00,73.7,51.5,0.00,West,270,0.0,4.4,46,0.00,,,0.00,WUHU216HW,2013-04-08 18:18:00,
2013-04-08 14:23:00,73.5,51.3,0.00,WSW,248,0.0,6.4,46,0.00,,,0.00,WUHU216HW,2013-04-08 18:23:00,
2013-04-08 14:28:00,73.5,51.9,0.00,West,270,0.0,6.4,47,0.00,,,0.00,WUHU216HW,2013-04-08 18:28:00,
2013-04-08 14:33:00,73.5,51.9,0.00,WNW,293,0.0,4.6,47,0.00,,,0.00,WUHU216HW,2013-04-08 18:33:00,
2013-04-08 14:38:00,73.4,51.2,0.00,West,270,0.0,5.5,46,0.00,,,0.00,WUHU216HW,2013-04-08 18:38:00,
2013-04-08 14:43:00,73.4,52.4,0.00,SSE,158,0.0,5.5,48,0.00,,,0.00,WUHU216HW,2013-04-08 18:43:00,
2013-04-08 14:48:00,73.7,52.1,0.00,West,270,2.9,5.1,47,0.00,,,0.00,WUHU216HW,2013-04-08 18:48:00,
2013-04-08 14:53:00,74.1,51.9,0.00,WSW,248,2.2,5.1,46,0.00,,,0.00,WUHU216HW,2013-04-08 18:53:00,
2013-04-08 14:58:00,74.4,52.2,0.00,WSW,248,2.6,4.9,46,0.00,,,0.00,WUHU216HW,2013-04-08 18:58:00,
2013-04-08 15:03:00,74.4,52.2,0.00,SSW,203,0.0,4.0,46,0.00,,,0.00,WUHU216HW,2013-04-08 19:03:00,
2013-04-08 15:08:00,74.4,52.2,0.00,West,270,5.1,5.1,46,0.00,,,0.00,WUHU216HW,2013-04-08 19:08:00,
2013-04-08 15:13:00,74.4,52.2,0.00,West,270,0.0,5.1,46,0.00,,,0.00,WUHU216HW,2013-04-08 19:13:00,
2013-04-08 15:18:00,74.3,52.2,0.00,WNW,293,0.0,6.4,46,0.00,,,0.00,WUHU216HW,2013-04-08 19:18:00,
2013-04-08 15:23:00,74.3,52.0,0.00,West,270,0.6,6.9,46,0.00,,,0.00,WUHU216HW,2013-04-08 19:23:00,
2013-04-08 15:28:00,74.1,51.9,0.00,SW,225,5.1,6.9,46,0.00,,,0.00,WUHU216HW,2013-04-08 19:28:00,
2013-04-08 15:33:00,74.1,51.9,0.00,West,270,2.9,9.1,46,0.00,,,0.00,WUHU216HW,2013-04-08 19:33:00,
2013-04-08 15:38:00,74.1,52.5,0.00,West,270,0.0,9.1,47,0.00,,,0.00,WUHU216HW,2013-04-08 19:38:00,
2013-04-08 15:43:00,74.1,52.5,0.00,North,0,0.0,6.0,47,0.00,,,0.00,WUHU216HW,2013-04-08 19:43:00,
2013-04-08 15:48:00,74.1,52.5,0.00,SE,135,3.1,4.9,47,0.00,,,0.00,WUHU216HW,2013-04-08 19:48:00,
2013-04-08 15:53:00,74.1,53.1,0.00,SSE,158,0.0,8.0,47,0.00,,,0.00,WUHU216HW,2013-04-08 19:53:00,
2013-04-08 15:58:00,74.3,52.6,0.00,WSW,248,2.9,8.0,47,0.00,,,0.00,WUHU216HW,2013-04-08 19:58:00,
2013-04-08 16:03:00,74.3,52.6,0.00,West,270,3.8,6.4,47,0.00,,,0.00,WUHU216HW,2013-04-08 20:03:00,
2013-04-08 16:08:00,74.1,52.5,0.00,SE,135,0.0,6.4,47,0.00,,,0.00,WUHU216HW,2013-04-08 20:08:00,
2013-04-08 16:13:00,73.9,52.3,0.00,West,270,0.0,5.3,47,0.00,,,0.00,WUHU216HW,2013-04-08 20:13:00,
2013-04-08 16:18:00,74.1,53.1,0.00,West,270,5.3,5.8,47,0.00,,,0.00,WUHU216HW,2013-04-08 20:18:00,
2013-04-08 16:23:00,74.1,53.1,0.00,SE,135,0.0,5.8,48,0.00,,,0.00,WUHU216HW,2013-04-08 20:23:00,
2013-04-08 16:28:00,73.9,52.3,0.00,WSW,248,2.2,4.4,47,0.00,,,0.00,WUHU216HW,2013-04-08 20:28:00,
2013-04-08 16:33:00,74.1,52.5,0.00,WNW,293,2.2,4.4,47,0.00,,,0.00,WUHU216HW,2013-04-08 20:33:00,
2013-04-08 16:38:00,74.1,51.9,0.00,West,270,3.5,8.7,46,0.00,,,0.00,WUHU216HW,2013-04-08 20:38:00,
2013-04-08 16:43:00,73.5,51.5,0.00,West,270,4.2,8.7,46,0.00,,,0.00,WUHU216HW,2013-04-08 20:43:00,
2013-04-08 16:48:00,73.5,51.9,0.00,West,270,3.1,11.4,47,0.00,,,0.00,WUHU216HW,2013-04-08 20:48:00,
2013-04-08 16:53:00,73.4,51.2,0.00,West,270,6.9,11.4,46,0.00,,,0.00,WUHU216HW,2013-04-08 20:53:00,
2013-04-08 16:58:00,73.2,51.0,0.00,WSW,248,0.0,10.2,46,0.00,,,0.00,WUHU216HW,2013-04-08 20:58:00,
2013-04-08 17:03:00,73.4,51.2,0.00,WNW,293,8.2,10.2,46,0.00,,,0.00,WUHU216HW,2013-04-08 21:03:00,
2013-04-08 17:08:00,73.4,51.8,0.00,West,270,0.0,8.2,47,0.00,,,0.00,WUHU216HW,2013-04-08 21:08:00,
2013-04-08 17:13:00,73.5,51.3,0.00,WNW,293,4.4,6.0,47,0.00,,,0.00,WUHU216HW,2013-04-08 21:13:00,
2013-04-08 17:18:00,73.5,51.3,0.00,WNW,293,3.3,4.4,46,0.00,,,0.00,WUHU216HW,2013-04-08 21:18:00,
2013-04-08 17:23:00,73.5,51.3,0.00,WSW,248,3.3,4.6,46,0.00,,,0.00,WUHU216HW,2013-04-08 21:23:00,
2013-04-08 17:28:00,73.5,51.2,0.00,SSE,158,2.0,4.6,46,0.00,,,0.00,WUHU216HW,2013-04-08 21:28:00,
2013-04-08 17:33:00,73.4,51.2,0.00,West,270,4.9,4.9,46,0.00,,,0.00,WUHU216HW,2013-04-08 21:33:00,
2013-04-08 17:38:00,73.2,51.0,0.00,West,270,2.4,6.7,46,0.00,,,0.00,WUHU216HW,2013-04-08 21:38:00,
2013-04-08 17:43:00,73.2,51.0,0.00,WSW,248,8.2,8.2,46,0.00,,,0.00,WUHU216HW,2013-04-08 21:43:00,
2013-04-08 17:48:00,73.0,50.9,0.00,West,270,4.4,8.2,46,0.00,,,0.00,WUHU216HW,2013-04-08 21:48:00,
2013-04-08 17:53:00,72.8,51.3,0.00,SSE,158,0.0,6.4,47,0.00,,,0.00,WUHU216HW,2013-04-08 21:53:00,
2013-04-08 17:58:00,72.5,51.0,0.00,WSW,248,1.7,6.7,47,0.00,,,0.00,WUHU216HW,2013-04-08 21:58:00,
2013-04-08 18:03:00,72.5,51.0,0.00,West,270,3.1,6.7,47,0.00,,,0.00,WUHU216HW,2013-04-08 22:03:00,
2013-04-08 18:08:00,72.3,50.8,0.00,WSW,248,1.7,8.0,47,0.00,,,0.00,WUHU216HW,2013-04-08 22:08:00,
2013-04-08 18:13:00,72.3,50.8,0.00,WNW,293,0.0,8.0,47,0.00,,,0.00,WUHU216HW,2013-04-08 22:13:00,
2013-04-08 18:18:00,72.1,50.6,0.00,West,270,4.2,4.4,47,0.00,,,0.00,WUHU216HW,2013-04-08 22:18:00,
2013-04-08 18:23:00,71.7,50.9,0.00,West,270,7.3,7.3,48,0.00,,,0.00,WUHU216HW,2013-04-08 22:23:00,
2013-04-08 18:28:00,71.4,50.6,0.00,West,270,2.4,7.3,48,0.00,,,0.00,WUHU216HW,2013-04-08 22:28:00,
2013-04-08 18:33:00,71.2,50.4,0.00,WNW,293,0.0,3.8,48,0.00,,,0.00,WUHU216HW,2013-04-08 22:33:00,
2013-04-08 18:38:00,71.0,50.3,0.00,West,270,1.1,3.5,48,0.00,,,0.00,WUHU216HW,2013-04-08 22:38:00,
2013-04-08 18:43:00,70.8,50.7,0.00,West,270,0.0,4.9,49,0.00,,,0.00,WUHU216HW,2013-04-08 22:43:00,
2013-04-08 18:48:00,70.8,50.7,0.00,West,270,3.3,7.3,49,0.00,,,0.00,WUHU216HW,2013-04-08 22:48:00,
2013-04-08 18:53:00,70.7,50.5,0.00,West,270,3.3,7.3,49,0.00,,,0.00,WUHU216HW,2013-04-08 22:53:00,
2013-04-08 18:58:00,70.5,50.4,0.00,WNW,293,0.0,6.0,49,0.00,,,0.00,WUHU216HW,2013-04-08 22:58:00,
2013-04-08 19:03:00,70.3,50.8,0.00,West,270,0.6,3.3,50,0.00,,,0.00,WUHU216HW,2013-04-08 23:03:00,
2013-04-08 19:08:00,70.3,50.8,0.00,SW,225,5.8,5.8,50,0.00,,,0.00,WUHU216HW,2013-04-08 23:08:00,
2013-04-08 19:13:00,70.1,50.6,0.00,West,270,3.1,5.8,50,0.00,,,0.00,WUHU216HW,2013-04-08 23:13:00,
2013-04-08 19:18:00,69.9,50.5,0.00,WNW,293,4.2,4.4,50,0.00,,,0.00,WUHU216HW,2013-04-08 23:18:00,
2013-04-08 19:23:00,69.6,50.1,0.00,West,270,2.9,8.0,50,0.00,,,0.00,WUHU216HW,2013-04-08 23:23:00,
2013-04-08 19:28:00,69.6,50.6,0.00,West,270,4.6,8.0,51,0.00,,,0.00,WUHU216HW,2013-04-08 23:28:00,
2013-04-08 19:33:00,69.6,50.6,0.00,West,270,3.3,5.1,51,0.00,,,0.00,WUHU216HW,2013-04-08 23:33:00,
2013-04-08 19:38:00,69.4,50.5,0.00,West,270,5.1,6.0,51,0.00,,,0.00,WUHU216HW,2013-04-08 23:38:00,
2013-04-08 19:43:00,69.0,50.1,0.00,West,270,6.7,6.7,51,0.00,,,0.00,WUHU216HW,2013-04-08 23:43:00,
2013-04-08 19:48:00,68.9,50.0,0.00,West,270,2.6,6.7,51,0.00,,,0.00,WUHU216HW,2013-04-08 23:48:00,
2013-04-08 19:53:00,68.7,49.8,0.00,West,270,2.4,5.3,51,0.00,,,0.00,WUHU216HW,2013-04-08 23:53:00,
2013-04-08 19:58:00,68.5,50.1,0.00,SW,225,0.6,4.4,52,0.00,,,0.00,WUHU216HW,2013-04-08 23:58:00,
2013-04-08 20:03:00,68.3,50.0,0.00,West,270,0.0,5.5,52,0.00,,,0.00,WUHU216HW,2013-04-09 00:03:00,
2013-04-08 20:08:00,68.1,49.8,0.00,West,270,0.0,5.5,52,0.00,,,0.00,WUHU216HW,2013-04-09 00:08:00,
2013-04-08 20:13:00,67.8,50.0,0.00,West,270,0.0,3.1,53,0.00,,,0.00,WUHU216HW,2013-04-09 00:13:00,
2013-04-08 20:18:00,67.8,50.0,0.00,West,270,0.0,3.1,53,0.00,,,0.00,WUHU216HW,2013-04-09 00:18:00,
2013-04-08 20:23:00,67.6,49.8,0.00,West,270,2.0,2.4,53,0.00,,,0.00,WUHU216HW,2013-04-09 00:23:00,
2013-04-08 20:28:00,67.2,50.0,0.00,West,270,0.0,3.8,54,0.00,,,0.00,WUHU216HW,2013-04-09 00:28:00,
2013-04-08 20:33:00,67.2,50.0,0.00,WSW,248,1.5,3.8,54,0.00,,,0.00,WUHU216HW,2013-04-09 00:33:00,
2013-04-08 20:38:00,67.1,49.7,0.00,West,270,2.2,5.3,54,0.00,,,0.00,WUHU216HW,2013-04-09 00:38:00,
2013-04-08 20:43:00,66.9,49.7,0.00,WSW,248,1.5,5.3,54,0.00,,,0.00,WUHU216HW,2013-04-09 00:43:00,
2013-04-08 20:48:00,66.7,50.0,0.00,West,270,1.1,3.1,55,0.00,,,0.00,WUHU216HW,2013-04-09 00:48:00,
2013-04-08 20:53:00,66.7,50.0,0.00,West,270,0.0,3.1,55,0.00,,,0.00,WUHU216HW,2013-04-09 00:53:00,
2013-04-08 20:58:00,66.5,49.8,0.00,West,270,2.0,3.1,55,0.00,,,0.00,WUHU216HW,2013-04-09 00:58:00,
2013-04-08 21:03:00,66.3,49.7,0.00,WSW,248,2.9,2.9,55,0.00,,,0.00,WUHU216HW,2013-04-09 01:03:00,
2013-04-08 21:08:00,66.0,49.8,0.00,West,270,2.2,3.5,56,0.00,,,0.00,WUHU216HW,2013-04-09 01:08:00,
2013-04-08 21:13:00,66.0,49.8,0.00,WSW,248,1.5,4.4,56,0.00,,,0.00,WUHU216HW,2013-04-09 01:13:00,
2013-04-08 21:18:00,66.0,49.8,0.00,WSW,248,2.0,4.4,56,0.00,,,0.00,WUHU216HW,2013-04-09 01:18:00,
2013-04-08 21:23:00,66.0,50.3,0.00,West,270,3.3,5.8,57,0.00,,,0.00,WUHU216HW,2013-04-09 01:23:00,
2013-04-08 21:29:00,66.0,50.3,0.00,WSW,248,2.2,5.8,57,0.00,,,0.00,WUHU216HW,2013-04-09 01:29:00,
2013-04-08 21:34:00,66.0,50.3,0.00,West,270,0.0,6.4,57,0.00,,,0.00,WUHU216HW,2013-04-09 01:34:00,
2013-04-08 21:39:00,66.0,50.3,0.00,West,270,0.0,6.4,57,0.00,,,0.00,WUHU216HW,2013-04-09 01:39:00,
2013-04-08 21:44:00,66.0,50.3,0.00,West,270,2.2,3.8,57,0.00,,,0.00,WUHU216HW,2013-04-09 01:44:00,
2013-04-08 21:50:00,65.8,50.1,0.00,West,270,1.1,7.8,57,0.00,,,0.00,WUHU216HW,2013-04-09 01:50:00,
2013-04-08 21:55:00,65.8,50.1,0.00,WNW,293,2.2,7.8,57,0.00,,,0.00,WUHU216HW,2013-04-09 01:55:00,
2013-04-08 22:00:00,65.6,49.9,0.00,West,270,3.5,4.0,57,0.00,,,0.00,WUHU216HW,2013-04-09 02:00:00,
2013-04-08 22:05:00,65.4,50.2,0.00,WNW,293,2.4,3.5,58,0.00,,,0.00,WUHU216HW,2013-04-09 02:05:00,
2013-04-08 22:10:00,65.3,50.1,0.00,West,270,0.0,2.9,58,0.00,,,0.00,WUHU216HW,2013-04-09 02:10:00,
2013-04-08 22:15:00,65.1,49.9,0.00,WNW,293,2.6,2.9,58,0.00,,,0.00,WUHU216HW,2013-04-09 02:15:00,
2013-04-08 22:20:00,65.1,49.9,0.00,WSW,248,0.0,2.6,58,0.00,,,0.00,WUHU216HW,2013-04-09 02:20:00,
2013-04-08 22:25:00,64.9,50.2,0.00,WSW,248,0.0,1.1,59,0.00,,,0.00,WUHU216HW,2013-04-09 02:25:00,
2013-04-08 22:30:00,64.7,50.0,0.00,WSW,248,0.0,1.1,59,0.00,,,0.00,WUHU216HW,2013-04-09 02:30:00,
2013-04-08 22:35:00,64.5,49.8,0.00,West,270,0.0,2.2,59,0.00,,,0.00,WUHU216HW,2013-04-09 02:35:00,
2013-04-08 22:40:00,64.4,49.6,0.00,WSW,248,0.0,2.2,59,0.00,,,0.00,WUHU216HW,2013-04-09 02:40:00,
2013-04-08 22:45:00,64.2,49.5,0.00,West,270,2.6,2.6,59,0.00,,,0.00,WUHU216HW,2013-04-09 02:45:00,
2013-04-08 22:50:00,64.2,50.0,0.00,West,270,2.0,2.6,60,0.00,,,0.00,WUHU216HW,2013-04-09 02:50:00,
2013-04-08 22:55:00,64.2,50.0,0.00,WSW,248,0.0,4.0,60,0.00,,,0.00,WUHU216HW,2013-04-09 02:55:00,
2013-04-08 23:00:00,64.2,50.0,0.00,WSW,248,0.0,4.0,60,0.00,,,0.00,WUHU216HW,2013-04-09 03:00:00,
2013-04-08 23:05:00,64.2,50.0,0.00,WNW,293,1.1,6.7,60,0.00,,,0.00,WUHU216HW,2013-04-09 03:05:00,
2013-04-08 23:10:00,64.2,50.0,0.00,West,270,2.6,6.7,60,0.00,,,0.00,WUHU216HW,2013-04-09 03:10:00,
2013-04-08 23:15:00,64.2,50.0,0.00,WNW,293,4.4,4.4,60,0.00,,,0.00,WUHU216HW,2013-04-09 03:15:00,
2013-04-08 23:20:00,64.4,50.1,0.00,West,270,1.3,4.4,60,0.00,,,0.00,WUHU216HW,2013-04-09 03:20:00,
2013-04-08 23:25:00,64.5,50.3,0.00,WNW,293,4.9,4.9,60,0.00,,,0.00,WUHU216HW,2013-04-09 03:25:00,
2013-04-08 23:30:00,64.5,50.3,0.00,West,270,3.1,4.9,60,0.00,,,0.00,WUHU216HW,2013-04-09 03:30:00,
2013-04-08 23:35:00,64.5,50.3,0.00,WSW,248,1.7,3.3,60,0.00,,,0.00,WUHU216HW,2013-04-09 03:35:00,
2013-04-08 23:40:00,64.5,50.3,0.00,WSW,248,0.0,3.3,60,0.00,,,0.00,WUHU216HW,2013-04-09 03:40:00,
2013-04-08 23:45:00,64.5,50.3,0.00,WSW,248,0.0,4.0,60,0.00,,,0.00,WUHU216HW,2013-04-09 03:45:00,
2013-04-08 23:50:00,64.2,50.0,0.00,WSW,248,0.0,4.0,60,0.00,,,0.00,WUHU216HW,2013-04-09 03:50:00,
2013-04-08 23:55:00,64.2,50.0,0.00,West,270,2.4,3.1,60,0.00,,,0.00,WUHU216HW,2013-04-09 03:55:00,